RH
31 30 28 29 26 28 35 99 100 100 100 75 45 46 37 29 28 31 35 38 38 41 45 47 55 71 96 93 80 68 57 49 33 27 23 26 22 22 19 17 18 19 20 20 20 18 16 16 17
32 32 30 28 25 65 61 34 100 90 59 56 51 41 30 31 30 34 37 42 42 42 43 45 43 42 39 35 33 31 29 24 21 20 18 18 19 18 19 20 22 22 21 20 20 21 21 21 20
39 37 32 31 39 100 100 94 42 58 58 55 40 34 35 38 38 36 39 40 41 38 37 34 32 33 28 24 23 21 21 20 20 20 21 21 22 22 22 23 22 22 23 23 23 24 24 24 25
41 39 39 34 30 52 100 64 60 51 41 27 64 63 37 43 44 43 41 40 34 33 32 31 27 22 23 22 20 22 22 22 22 22 22 24 26 28 28 27 26 26 26 26 27 27 28 28 28
40 33 38 42 53 98 84 77 49 42 35 97 100 99 90 41 40 38 31 29 28 27 24 25 23 25 24 23 22 22 24 26 30 32 31 30 29 30 30 29 27 28 27 27 27 28 31 32 32
42 41 37 33 36 100 95 44 45 35 54 43 100 100 60 51 43 40 39 34 30 30 29 27 28 29 29 29 32 32 33 35 35 33 30 28 25 24 26 27 26 28 30 30 34 38 44 46 48
41 38 39 39 49 37 42 100 55 100 96 96 100 99 51 50 35 30 29 31 32 31 35 33 31 32 32 32 32 31 31 29 26 26 24 23 22 20 20 21 22 26 29 35 41 42 43 33 25
84 76 68 50 42 40 49 54 51 100 100 93 33 35 35 32 31 31 32 32 31 30 29 26 25 28 31 30 28 26 25 25 26 26 27 28 32 39 45 56 42 37 29 22 16 14 14 15 15
66 65 79 78 52 36 60 34 93 90 97 86 34 33 32 34 35 35 38 36 38 37 33 30 32 38 34 27 26 24 25 32 36 40 44 47 42 37 28 22 18 18 20 20 25 25 26 28 30
51 46 45 40 43 48 38 30 39 56 45 49 40 44 50 55 54 48 46 44 39 37 41 42 36 27 24 25 28 37 42 47 48 40 30 24 23 23 26 27 29 32 32 35 33 31 27 26 24
55 55 46 43 47 52 36 48 75 54 77 64 56 58 54 55 55 49 41 38 41 47 64 48 36 24 24 30 38 51 47 36 28 27 28 31 31 31 30 28 26 26 26 27 28 28 28 26 23
78 70 63 59 51 63 66 63 77 67 77 82 80 63 69 70 56 46 35 44 58 78 54 37 32 32 37 50 45 32 31 30 32 37 38 36 33 33 32 30 26 23 23 22 21 20 18 18 17
70 60 60 66 68 75 76 70 81 100 77 56 74 94 88 85 62 57 72 83 90 48 36 53 72 83 64 35 34 36 36 43 45 43 40 38 35 33 30 26 24 21 20 20 20 20 20 20 19
75 80 63 60 61 64 80 91 92 82 72 73 71 71 67 64 68 87 89 80 46 44 61 78 61 34 36 41 42 51 58 53 47 43 40 36 29 26 25 24 23 22 22 21 20 20 20 19 17
100 100 72 90 70 91 100 100 100 90 62 64 63 74 88 92 99 90 87 40 59 60 38 30 33 38 48 54 59 58 55 48 42 36 29 27 27 27 24 23 20 17 15 12 11 9 9 9 9
100 82 100 98 100 100 100 97 73 54 84 100 100 100 100 100 83 29 57 68 41 33 33 36 45 54 59 64 57 53 47 44 34 31 30 27 22 17 14 12 11 10 9 8 8 8 8 8 8
100 90 83 70 70 79 54 71 65 100 100 100 98 70 28 22 52 78 45 32 32 36 45 57 60 55 48 43 42 43 41 34 33 28 23 20 16 14 11 9 9 9 8 8 9 9 9 9 8
98 100 100 86 85 74 43 46 61 44 29 23 26 57 79 64 37 30 34 35 41 49 51 42 38 39 42 44 45 42 37 34 28 25 20 14 10 9 9 9 8 8 9 9 9 8 8 7 6
81 98 98 34 46 36 37 30 26 31 48 64 66 44 29 29 36 38 41 42 49 50 44 38 46 52 48 45 46 44 39 30 28 21 15 10 9 9 8 9 9 9 9 8 7 7 7 8 8
52 39 37 36 49 26 27 28 22 28 37 33 27 31 36 38 40 40 44 60 62 52 48 51 57 52 46 50 48 41 32 29 23 16 10 9 8 9 9 9 9 8 7 8 9 9 9 8 7
32 34 39 33 25 19 20 20 21 22 31 32 36 40 40 45 48 57 71 71 66 64 61 60 51 46 56 55 46 37 33 26 17 10 9 9 9 9 8 8 7 9 10 9 8 7 6 6 5
33 38 42 26 24 23 25 27 31 38 40 45 46 50 55 64 66 79 82 61 53 59 58 54 52 58 63 50 39 34 24 13 10 9 9 9 8 8 7 9 10 8 7 6 6 5 5 6 7
34 42 30 29 28 30 37 37 47 55 57 56 67 71 72 74 90 77 48 43 50 52 59 58 60 66 53 40 32 21 11 10 9 9 9 9 8 8 10 8 6 6 5 4 5 8 8 8 8
34 36 31 32 42 42 48 50 57 64 74 66 84 80 69 65 51 40 42 44 46 62 66 65 68 58 44 34 19 11 10 10 10 10 9 8 10 9 7 6 6 4 5 8 9 8 9 9 8
45 58 40 33 53 51 52 53 70 82 85 83 83 55 50 43 40 44 42 42 50 66 66 70 58 49 34 18 12 10 10 10 10 9 8 10 8 6 6 5 6 8 8 8 9 9 10 12 12
100 69 45 37 62 58 54 67 90 72 71 59 49 46 47 47 47 46 45 44 58 69 71 58 52 36 20 13 11 10 10 10 9 8 10 7 6 6 6 8 8 8 9 11 12 13 12 12 12
100 98 52 49 66 68 37 45 100 56 55 50 49 53 55 54 53 50 48 46 64 71 62 56 43 24 16 11 11 11 10 10 8 10 7 6 6 7 8 8 9 12 14 13 13 13 13 12 12
70 100 70 69 68 90 65 45 57 41 39 44 55 58 57 61 54 53 49 49 66 65 60 52 35 21 12 12 12 11 10 9 9 8 7 6 8 8 8 11 13 14 14 14 14 13 13 14 13
44 100 93 78 85 88 68 56 40 39 41 51 55 58 58 59 55 54 48 52 67 64 59 44 29 18 12 12 12 11 10 8 10 8 7 8 10 10 14 15 14 14 16 14 14 16 15 15 12
51 100 90 91 73 98 60 65 42 41 47 53 51 48 57 56 54 54 48 56 66 61 52 39 24 13 12 12 12 11 10 9 9 8 8 10 12 15 16 15 16 17 16 17 18 16 14 12 10
Wind_Speed
30 30 29 27 25 22 25 19 22 37 40 41 45 43 43 44 44 44 44 46 47 47 49 52 54 56 57 60 63 67 68 69 68 67 66 67 66 68 69 69 69 72 72 74 76 78 78 79 81
32 32 31 30 28 22 28 36 40 40 41 45 44 47 49 48 50 51 51 51 52 54 54 56 58 61 62 65 66 67 68 67 67 66 66 66 69 70 70 71 73 75 77 78 79 81 84 85 86
31 34 32 30 27 13 25 27 44 41 44 47 49 52 53 54 54 55 55 55 57 58 59 60 62 63 64 64 65 65 65 65 65 66 68 70 71 72 75 77 79 80 80 81 84 85 86 88 89
36 36 35 34 33 26 36 39 41 44 47 48 53 55 54 56 59 60 61 61 60 59 60 61 61 59 59 59 59 60 63 66 68 71 73 75 77 78 80 82 84 84 85 87 88 89 91 92 94
38 39 38 36 23 24 42 41 41 45 45 38 39 43 52 62 63 63 61 58 57 56 56 55 54 56 58 62 64 66 68 70 73 76 79 81 82 84 85 86 87 88 90 92 94 95 96 96 97
39 40 41 39 36 33 34 46 47 43 44 41 47 63 60 62 64 59 57 54 53 53 56 58 58 60 64 66 69 71 74 77 79 81 84 86 87 88 89 90 91 93 95 97 97 98 97 98 98
40 40 41 43 46 47 40 32 27 26 43 36 41 53 56 61 55 51 50 51 54 56 58 61 64 67 70 73 76 79 81 83 84 85 87 90 92 93 94 95 96 96 96 96 97 98 98 97 96
35 36 41 46 51 41 47 46 30 29 38 46 56 56 55 53 51 52 53 56 59 62 65 68 72 75 77 79 82 82 84 85 85 87 89 89 90 90 91 93 98 98 96 95 95 95 95 96 96
33 35 39 42 38 35 44 33 36 37 51 62 55 52 53 52 54 56 59 62 65 69 73 75 77 78 80 82 83 82 81 80 81 84 86 86 88 89 92 92 92 96 98 99 99 100 99 97 97
31 31 35 37 36 37 35 34 35 43 46 51 50 50 52 54 58 60 62 66 70 72 75 78 79 81 80 78 76 75 74 77 77 82 89 88 89 91 94 96 96 96 97 99 102 101 100 101 100
33 33 35 35 33 36 36 32 38 37 43 50 51 53 56 57 58 63 65 67 70 72 76 78 80 81 78 75 75 74 78 79 80 81 84 90 91 92 94 97 99 100 100 100 99 100 99 99 99
34 33 32 33 31 38 35 39 40 42 44 48 50 55 59 62 65 66 67 70 73 76 80 78 80 76 75 73 75 77 79 79 80 81 85 89 93 95 98 99 99 98 98 98 99 99 100 101 102
37 37 38 38 37 35 39 42 41 41 46 49 51 55 59 64 67 69 72 74 77 79 73 68 69 72 72 75 75 75 78 80 84 88 91 95 95 99 99 99 99 99 100 100 101 103 104 106 107
33 29 35 38 38 38 39 39 45 48 50 54 57 59 62 65 69 72 73 76 77 64 64 66 67 69 69 70 73 78 85 87 91 92 93 98 99 98 98 99 101 102 104 105 107 108 110 111 112
36 30 33 32 30 39 40 40 50 52 56 57 58 60 66 71 72 75 78 69 62 64 62 63 64 65 71 76 81 84 88 92 94 96 97 98 99 101 103 104 105 107 109 110 111 111 111 110 111
38 38 37 29 41 38 44 47 53 54 56 60 63 65 64 69 75 67 57 61 62 59 61 62 67 72 76 83 84 87 90 93 96 99 102 105 105 105 106 107 108 109 110 110 110 110 109 109 109
37 35 36 38 44 47 45 52 51 57 60 64 66 68 64 56 53 56 58 55 56 60 64 69 74 76 78 83 86 89 89 91 97 100 103 107 107 108 108 108 108 109 109 109 108 108 107 105 102
36 31 41 44 37 48 42 47 55 55 55 55 50 42 45 49 51 52 53 56 60 64 68 70 74 77 81 86 89 89 94 99 101 104 106 108 109 109 109 108 108 107 106 105 103 101 100 97 94
36 35 39 27 29 35 38 42 41 41 37 36 39 41 43 45 46 50 54 57 62 67 70 72 76 81 86 87 89 93 99 103 105 108 112 110 108 106 106 106 105 102 100 99 96 93 91 88 85
22 24 24 23 31 35 32 35 34 34 32 33 33 37 41 43 47 51 56 62 67 71 73 76 80 84 88 89 92 96 102 106 110 114 111 108 105 105 102 100 98 95 92 90 86 82 79 78 76
18 20 24 26 25 28 28 29 25 27 27 32 34 37 40 45 50 56 61 66 70 74 75 78 81 85 88 91 96 102 109 112 114 112 109 107 104 100 97 93 89 85 82 80 77 73 70 67 67
16 20 22 18 23 18 22 20 23 24 28 31 35 39 44 51 56 62 66 69 71 74 77 80 84 87 89 95 100 107 110 110 109 108 106 103 99 96 91 86 80 77 74 71 67 64 61 60 58
18 18 19 19 16 21 18 24 27 28 35 37 41 45 50 56 61 65 67 69 71 73 75 81 84 87 93 98 105 109 108 107 106 104 101 99 95 89 83 78 74 70 66 63 59 56 54 51 49
16 20 20 20 21 21 23 27 27 34 39 42 46 49 52 57 61 64 66 69 74 76 80 82 85 90 95 103 106 106 105 104 103 99 96 91 85 79 75 71 65 62 59 55 51 48 47 47 47
19 22 23 22 21 25 27 29 31 34 39 44 47 49 53 57 60 64 68 72 75 78 80 83 88 92 99 103 106 104 103 101 97 93 88 81 76 72 68 63 60 58 53 50 48 47 46 45 43
19 23 23 21 22 27 28 32 34 40 41 42 45 49 55 58 62 67 71 75 76 79 82 87 91 98 102 106 104 102 101 96 93 87 80 75 70 65 60 57 54 51 50 49 47 46 45 45 44
24 24 25 24 25 28 25 29 32 38 40 41 45 51 57 61 65 70 74 77 79 78 83 88 94 99 106 105 101 100 96 92 87 81 75 69 64 59 54 53 52 50 48 47 46 45 45 44 43
29 29 28 28 28 29 30 30 33 38 38 43 49 54 59 62 66 70 75 78 79 80 85 90 97 101 105 102 99 97 92 88 83 76 70 64 58 55 55 53 50 48 47 46 44 44 43 43 43
31 30 30 31 29 30 31 27 33 35 40 43 49 57 61 63 67 71 77 79 79 82 86 91 98 103 102 98 96 92 88 85 79 72 65 58 55 55 53 51 49 47 45 46 46 46 45 44 42
32 34 28 32 27 27 28 30 33 36 41 47 52 56 61 64 69 73 79 79 80 84 88 95 98 100 98 95 92 88 85 82 75 68 60 56 54 52 50 49 47 46 47 48 48 46 46 44 42
Wind_Direction
222 230 235 237 242 240 241 217 297 256 269 283 278 279 281 283 286 287 285 286 287 286 282 283 282 284 285 285 284 285 286 287 288 288 289 288 288 288 289 288 288 287 285 283 281 281 279 278 278
229 232 236 241 244 260 262 256 261 268 274 275 278 281 285 286 289 288 289 288 289 288 288 288 287 286 285 286 287 286 287 288 288 288 288 289 289 289 288 286 285 283 282 282 282 281 281 280 279
231 234 238 242 244 230 260 254 256 262 261 271 279 283 286 287 288 290 290 288 288 290 290 289 288 286 287 287 288 289 289 289 288 288 288 288 287 286 285 285 284 285 284 282 282 281 280 279 280
232 236 237 242 246 256 269 260 257 262 273 286 287 285 283 284 286 288 289 290 290 290 290 289 289 290 292 291 289 287 287 287 287 287 288 288 290 289 287 285 285 285 284 282 281 281 281 280 279
239 241 240 240 247 287 252 259 271 275 277 277 270 279 284 285 284 287 288 286 286 288 290 291 292 292 292 290 289 290 291 291 291 290 289 289 289 288 287 286 285 285 283 282 281 281 280 280 280
238 243 246 250 242 243 254 270 272 289 295 281 271 282 284 284 285 286 288 291 292 290 290 292 293 292 291 293 293 292 292 292 291 290 290 289 288 287 286 285 285 284 283 283 282 281 280 279 279
240 244 249 249 244 245 258 245 280 284 276 277 260 281 287 285 285 289 289 290 290 289 290 290 292 292 292 293 293 293 293 293 292 291 291 290 289 288 287 286 285 284 283 282 282 282 282 282 281
241 245 250 251 249 254 254 242 267 230 265 265 282 283 283 285 287 287 289 288 289 290 292 292 293 294 293 293 294 295 295 295 295 292 291 291 291 290 289 289 290 289 288 286 285 283 280 280 279
241 244 248 254 264 261 257 259 254 243 257 269 276 281 284 287 288 291 292 293 295 296 295 294 295 297 298 297 297 296 294 292 292 292 291 290 290 291 290 289 288 289 289 288 287 286 285 284 283
245 248 249 258 263 265 268 270 267 261 267 270 280 285 288 291 295 295 295 297 297 297 297 297 297 297 298 297 296 296 296 295 295 298 300 297 296 296 295 295 293 292 290 290 290 289 288 287 286
251 252 257 263 266 266 273 279 265 270 273 283 287 291 293 294 294 295 296 298 299 300 303 301 300 300 299 299 301 301 299 301 301 298 298 300 299 298 296 294 293 291 290 289 288 288 287 286 284
254 256 260 264 268 275 278 273 278 281 284 290 297 296 297 298 298 297 297 301 303 305 304 304 303 303 304 306 304 304 302 301 302 301 301 299 297 296 296 296 295 294 292 291 289 288 286 285 284
257 260 262 266 267 272 274 279 285 281 283 288 291 293 295 296 296 300 303 305 306 306 304 303 305 308 307 305 304 302 303 304 303 302 301 300 300 300 299 297 296 295 294 292 290 289 287 286 285
255 262 263 265 268 275 276 281 284 286 290 293 292 291 291 295 298 301 303 304 304 303 303 305 306 305 306 304 304 305 304 304 305 303 302 302 303 301 299 298 296 295 292 291 289 288 287 286 285
255 260 269 271 271 273 286 288 287 289 293 291 291 293 296 299 301 301 299 303 301 306 309 307 309 307 307 306 305 305 304 305 305 306 305 303 302 301 299 297 295 294 293 292 291 290 289 288 286
256 253 264 271 277 273 278 280 284 288 290 292 294 295 293 291 295 300 303 305 312 311 312 311 308 307 307 307 307 307 307 308 309 308 308 307 305 303 300 299 297 295 294 293 292 291 290 289 288
247 255 267 264 270 276 280 282 284 287 288 288 290 293 297 299 302 306 309 313 312 313 312 310 309 309 310 309 309 308 309 308 308 309 309 308 304 301 300 299 298 297 296 295 295 294 292 291 290
238 261 263 263 271 280 284 282 284 287 290 294 299 304 306 307 308 314 314 314 313 314 313 313 312 313 313 312 311 311 310 311 311 310 309 307 305 304 303 302 301 300 299 298 297 295 294 293 291
241 255 262 276 286 290 291 293 292 295 300 303 305 307 309 315 316 312 313 315 315 315 316 316 316 315 315 314 313 313 312 313 312 310 310 309 307 306 304 304 303 302 301 299 298 297 296 295 293
246 248 274 291 295 294 296 299 307 303 305 307 313 311 314 314 315 316 317 317 316 317 317 316 316 316 315 315 315 314 315 313 313 313 311 310 309 308 308 306 305 303 302 300 299 299 298 296 295
262 272 283 300 294 301 302 307 309 312 312 312 314 315 317 318 317 319 319 318 318 317 317 317 317 317 317 317 316 316 315 316 315 314 313 313 312 311 309 308 307 305 303 303 303 301 299 297 296
266 275 287 299 301 313 305 312 310 319 312 318 320 321 322 321 321 320 319 319 318 318 317 318 319 320 318 318 318 317 317 316 316 315 316 315 314 314 313 311 309 307 307 305 305 304 302 301 300
260 273 286 293 303 304 325 316 325 317 322 324 324 324 323 322 320 319 318 320 319 318 318 320 321 320 320 321 320 319 319 318 318 319 318 318 317 316 315 313 312 311 310 311 311 310 309 308 305
270 275 277 284 294 299 309 316 321 315 317 323 323 323 322 321 320 320 322 322 323 322 323 323 322 321 323 322 322 322 321 321 322 321 321 320 319 318 317 316 316 316 317 319 317 314 312 309 308
274 271 275 285 294 298 305 315 314 314 314 319 321 322 322 321 322 325 324 325 326 325 325 324 323 324 324 324 324 324 324 325 324 324 324 323 322 321 321 322 322 323 324 322 320 319 319 317 314
267 267 272 284 291 295 311 315 313 313 319 320 321 323 322 322 324 326 327 329 328 327 327 326 326 327 328 327 327 327 327 328 328 328 327 327 326 326 329 328 326 328 328 328 327 326 324 323 320
279 272 280 282 289 295 308 314 309 315 318 320 322 325 325 326 327 327 329 330 328 328 327 328 329 330 331 329 330 330 331 331 331 331 333 331 332 334 331 330 334 334 333 333 333 332 328 326 324
278 274 277 280 292 296 307 317 314 318 319 323 322 325 327 328 328 328 330 330 330 329 329 329 331 332 332 333 333 333 334 334 335 337 337 338 338 335 337 339 338 338 339 338 336 335 333 331 329
264 277 273 277 283 291 302 313 312 318 320 326 325 326 327 328 328 329 331 331 330 331 331 331 334 333 334 335 335 336 337 339 340 341 343 341 340 342 342 341 343 344 343 342 342 341 338 337 334
267 272 267 275 287 289 298 306 310 318 321 323 325 325 328 328 330 331 332 332 332 332 333 335 336 335 336 337 338 339 341 343 345 347 345 344 346 345 345 346 347 347 348 347 345 345 344 342 340